When you browse on this site, cookies collect data to enhance your experience and personalize the content and advertising you see.
Visit our Privacy Policy to learn more. By continuing to use the site, you agree to this use of cookies and data.
  • In Sweden
  • List of Countries
  • For 7 days
  • Water Temperature
  • Weather Map
  • Weather Widgets
  • user-avatar
    Login

    Hourly Weather Tetuan

    Today, 26 February, Wednesday

    Time Temperature Precipitation Wind Pressure Humidity
    00:00 +12°C° 0 mm 4 mps 762 mmHg 89%
    01:00 +12°C° 0 mm 4 mps 762 mmHg 88%
    02:00 +12°C° 0 mm 4 mps 761 mmHg 88%
    03:00 +11°C° 0 mm 4 mps 761 mmHg 88%
    04:00 +11°C° 0 mm 4 mps 761 mmHg 86%
    05:00 +11°C° 0 mm 4 mps 761 mmHg 85%
    06:00 +12°C° 0 mm 4 mps 761 mmHg 83%
    07:00 +13°C° 0 mm 4 mps 761 mmHg 82%
    08:00 +14°C° 0 mm 4 mps 761 mmHg 81%
    09:00 +15°C° 0 mm 4 mps 762 mmHg 79%
    10:00 +17°C° 0 mm 4 mps 762 mmHg 74%
    11:00 +17°C° 0 mm 5 mps 762 mmHg 70%
    12:00 +19°C° 0 mm 5 mps 762 mmHg 65%
    13:00 +19°C° 0 mm 5 mps 761 mmHg 64%
    14:00 +19°C° 0 mm 6 mps 760 mmHg 63%
    15:00 +19°C° 0 mm 6 mps 760 mmHg 62%
    16:00 +17°C° 0 mm 5 mps 760 mmHg 67%
    17:00 +15°C° 0 mm 5 mps 760 mmHg 72%
    18:00 +14°C° 0 mm 4 mps 760 mmHg 77%
    19:00 +13°C° 0 mm 4 mps 760 mmHg 79%
    20:00 +12°C° 0 mm 4 mps 761 mmHg 80%
    21:00 +11°C° 0 mm 4 mps 761 mmHg 82%
    22:00 +11°C° 0 mm 3 mps 761 mmHg 79%
    23:00 +11°C° 0 mm 3 mps 761 mmHg 77%

    Tomorrow, 27 February, Thursday

    Time Temperature Precipitation Wind Pressure Humidity
    00:00 +11°C° 0 mm 3 mps 761 mmHg 75%
    01:00 +11°C° 0 mm 3 mps 761 mmHg 77%
    02:00 +11°C° 0 mm 3 mps 761 mmHg 79%
    03:00 +11°C° 0 mm 3 mps 760 mmHg 81%
    04:00 +10°C° 0 mm 3 mps 760 mmHg 81%
    05:00 +10°C° 0 mm 3 mps 760 mmHg 81%
    06:00 +10°C° 0 mm 3 mps 761 mmHg 81%
    07:00 +13°C° 0 mm 2 mps 761 mmHg 75%
    08:00 +14°C° 0 mm 2 mps 761 mmHg 70%
    09:00 +16°C° 0 mm 2 mps 762 mmHg 65%
    10:00 +18°C° 0 mm 2 mps 762 mmHg 59%
    11:00 +19°C° 0 mm 2 mps 762 mmHg 53%
    12:00 +21°C° 0 mm 2 mps 761 mmHg 47%
    13:00 +21°C° 0 mm 2 mps 761 mmHg 47%
    14:00 +21°C° 0 mm 2 mps 760 mmHg 47%
    15:00 +21°C° 0 mm 2 mps 760 mmHg 47%
    16:00 +19°C° 0 mm 2 mps 760 mmHg 54%
    17:00 +19°C° 0 mm 1 mps 760 mmHg 62%
    18:00 +16°C° 0 mm 1 mps 760 mmHg 70%
    19:00 +15°C° 0 mm 1 mps 760 mmHg 72%
    20:00 +14°C° 0 mm 1 mps 760 mmHg 74%
    21:00 +13°C° 0 mm 1 mps 761 mmHg 76%
    22:00 +13°C° 0 mm 1 mps 761 mmHg 76%
    23:00 +13°C° 0 mm 1 mps 760 mmHg 76%

    Day after tomorrow, 28 February, Friday

    Time Temperature Precipitation Wind Pressure Humidity
    00:00 +13°C° 0 mm 1 mps 760 mmHg 76%
    01:00 +13°C° 0 mm 1 mps 760 mmHg 76%
    02:00 +13°C° 0 mm 1 mps 760 mmHg 76%
    03:00 +13°C° 0 mm 1 mps 759 mmHg 77%
    04:00 +13°C° 0 mm 1 mps 759 mmHg 76%
    05:00 +12°C° 0 mm 1 mps 759 mmHg 75%
    06:00 +12°C° 0 mm 1 mps 758 mmHg 74%
    07:00 +14°C° 0 mm 1 mps 759 mmHg 69%
    08:00 +16°C° 0 mm 1 mps 759 mmHg 64%
    09:00 +19°C° 0 mm 1 mps 759 mmHg 59%
    10:00 +20°C° 0 mm 1 mps 759 mmHg 55%
    11:00 +21°C° 0 mm 1 mps 759 mmHg 52%
    12:00 +23°C° 0 mm 2 mps 759 mmHg 49%
    13:00 +23°C° 0 mm 2 mps 759 mmHg 50%
    14:00 +23°C° 0 mm 2 mps 758 mmHg 50%
    15:00 +23°C° 0 mm 1 mps 758 mmHg 51%
    16:00 +21°C° 0 mm 1 mps 757 mmHg 58%
    17:00 +20°C° 0 mm 1 mps 757 mmHg 65%
    18:00 +16°C° 0 mm 0 mps 757 mmHg 71%
    19:00 +16°C° 0 mm 1 mps 758 mmHg 73%
    20:00 +16°C° 0 mm 1 mps 758 mmHg 75%
    21:00 +15°C° 0 mm 1 mps 758 mmHg 77%
    22:00 +15°C° 0 mm 2 mps 758 mmHg 79%
    23:00 +15°C° 0 mm 2 mps 758 mmHg 81%

    29 February, Saturday

    Time Temperature Precipitation Wind Pressure Humidity
    00:00 +15°C° 0 mm 2 mps 758 mmHg 82%
    01:00 +13°C° 0 mm 3 mps 758 mmHg 84%
    02:00 +13°C° 0 mm 3 mps 758 mmHg 86%
    03:00 +13°C° 0 mm 4 mps 758 mmHg 88%
    04:00 +12°C° 0 mm 4 mps 758 mmHg 87%
    05:00 +12°C° 0 mm 4 mps 758 mmHg 86%
    06:00 +12°C° 0 mm 4 mps 758 mmHg 85%
    07:00 +13°C° 0 mm 4 mps 759 mmHg 80%
    08:00 +14°C° 0 mm 4 mps 759 mmHg 74%
    09:00 +17°C° 0 mm 4 mps 760 mmHg 69%
    10:00 +17°C° 0 mm 5 mps 760 mmHg 63%
    11:00 +19°C° 0 mm 5 mps 760 mmHg 57%
    12:00 +21°C° 0 mm 5 mps 760 mmHg 52%
    13:00 +21°C° 0 mm 6 mps 760 mmHg 53%
    14:00 +21°C° 0 mm 6 mps 759 mmHg 55%
    15:00 +21°C° 0 mm 6 mps 759 mmHg 57%
    16:00 +20°C° 0 mm 5 mps 759 mmHg 64%
    17:00 +17°C° 0 mm 5 mps 759 mmHg 72%
    18:00 +17°C° 0 mm 4 mps 759 mmHg 79%
    19:00 +15°C° 0 mm 4 mps 759 mmHg 82%
    20:00 +14°C° 0 mm 4 mps 760 mmHg 85%
    21:00 +13°C° 0 mm 3 mps 760 mmHg 88%
    22:00 +13°C° 0 mm 3 mps 760 mmHg 86%
    23:00 +13°C° 0 mm 3 mps 760 mmHg 84%

    1 March, Sunday

    Time Temperature Precipitation Wind Pressure Humidity
    00:00 +13°C° 0 mm 4 mps 760 mmHg 82%
    01:00 +12°C° 0 mm 3 mps 759 mmHg 83%
    02:00 +12°C° 0 mm 3 mps 759 mmHg 84%
    03:00 +12°C° 0 mm 3 mps 759 mmHg 85%
    04:00 +12°C° 0 mm 3 mps 759 mmHg 83%
    05:00 +12°C° 0 mm 3 mps 758 mmHg 80%
    06:00 +13°C° 0 mm 2 mps 758 mmHg 78%
    07:00 +14°C° 0 mm 2 mps 759 mmHg 75%
    08:00 +16°C° 0 mm 2 mps 759 mmHg 72%
    09:00 +17°C° 0 mm 2 mps 759 mmHg 69%
    10:00 +19°C° 0 mm 3 mps 759 mmHg 66%
    11:00 +20°C° 0 mm 3 mps 759 mmHg 63%
    12:00 +22°C° 0 mm 3 mps 759 mmHg 59%
    13:00 +22°C° 0 mm 3 mps 758 mmHg 61%
    14:00 +22°C° 0 mm 4 mps 758 mmHg 63%
    15:00 +22°C° 0 mm 4 mps 757 mmHg 64%
    16:00 +20°C° 0 mm 4 mps 757 mmHg 72%
    17:00 +19°C° 0 mm 3 mps 757 mmHg 79%
    18:00 +17°C° 0 mm 3 mps 757 mmHg 87%
    19:00 +17°C° 0 mm 3 mps 757 mmHg 89%
    20:00 +16°C° 0 mm 3 mps 758 mmHg 92%
    21:00 +14°C° 0 mm 3 mps 758 mmHg 94%
    22:00 +14°C° 0 mm 3 mps 758 mmHg 93%
    23:00 +14°C° 0 mm 3 mps 758 mmHg 93%

    2 March, Monday

    Time Temperature Precipitation Wind Pressure Humidity
    00:00 +14°C° 0 mm 4 mps 757 mmHg 92%
    01:00 +14°C° 0 mm 4 mps 757 mmHg 92%
    02:00 +14°C° 0 mm 4 mps 757 mmHg 92%
    03:00 +14°C° 0 mm 4 mps 757 mmHg 92%
    04:00 +14°C° 0 mm 5 mps 757 mmHg 91%
    05:00 +14°C° 0 mm 5 mps 757 mmHg 91%
    06:00 +15°C° 0 mm 5 mps 757 mmHg 90%
    07:00 +15°C° 0 mm 6 mps 757 mmHg 88%
    08:00 +16°C° 0 mm 6 mps 757 mmHg 85%
    09:00 +16°C° 0 mm 7 mps 757 mmHg 83%
    10:00 +17°C° 0.1 mm 7 mps 757 mmHg 79%
    11:00 +18°C° 0.1 mm 8 mps 757 mmHg 76%
    12:00 +20°C° 0.1 mm 8 mps 757 mmHg 72%
    13:00 +18°C° 0.1 mm 8 mps 757 mmHg 73%
    14:00 +18°C° 0.1 mm 8 mps 756 mmHg 73%
    15:00 +18°C° 0.1 mm 9 mps 756 mmHg 73%
    16:00 +17°C° 0.1 mm 8 mps 756 mmHg 76%
    17:00 +17°C° 0.1 mm 7 mps 756 mmHg 79%
    18:00 +16°C° 0.1 mm 7 mps 756 mmHg 82%
    19:00 +15°C° 0 mm 6 mps 757 mmHg 86%
    20:00 +15°C° 0 mm 6 mps 758 mmHg 89%
    21:00 +14°C° 0 mm 5 mps 758 mmHg 93%
    22:00 +14°C° 0.1 mm 5 mps 759 mmHg 92%
    23:00 +14°C° 0.1 mm 5 mps 759 mmHg 92%
    Show more